Regional Weather Roundup
Issued by NWS Goodland, KS

Home | Current Version | Previous Version | Text Only | Print | Product List | Glossary Off
Versions: 1 2 3 4 5 6 7 8 9 10 11 12 13 14 15 16 17 18 19 20 21 22 23 24 25 26 27 28 29 30 31 32 33 34 35 36 37 38 39 40 41 42 43 44 45 46 47 48 49 50

000
ASUS43 KGLD 271559
RWRGLD

GOODLAND FORECAST AREA HOURLY WEATHER ROUNDUP
NATIONAL WEATHER SERVICE GOODLAND KS
900 AM MST TUE JAN 27 2015

...OFFICIAL OBSERVATIONS...

CITY           SKY/WX    TMP DP  RH WIND       PRES   REMARKS
GOODLAND KS    SUNNY     59  27  29 W13       30.11S
HILL CITY KS   SUNNY     48  32  53 W6        30.08F
IMPERIAL NEB   SUNNY     45  29  53 W12       30.07S
MCCOOK NEB     SUNNY     43  31  62 W8        30.06F
AKRON CO       SUNNY     50  27  40 W13       30.13S
BURLINGTON CO  SUNNY     56  29  35 SW9       30.13F
LIMON CO       SUNNY     52  26  36 VRB5      30.18S
$$

...UNOFFICIAL OBSERVATIONS...

CITY           SKY/WX    TMP DP  RH WIND       PRES   REMARKS
COLBY KS       SUNNY     52  36  54 W9        30.09F
GOVE KS          N/A     44  32  63 MISG        N/A
NORTON KS      SUNNY     45  32  61 CALM      30.05F
SHARON SPRINGS   N/A     51  35  54 W8          N/A
KIT CARSON CO    N/A     41  32  69 MISG        N/A
YUMA CO          N/A     46  30  53 W8          N/A
$$



USA.gov is the U.S. government's official web portal to all federal, state and local government web resources and services.